N4BHM Weather Reports


Display with metric or nautical units.
time (UTC)temp
F
wind
direction
speed
MPH
gust
MPH
rain 1hr
in
rain 24hr
in
rain mn
in
humidity
%
barometer
mb
20260502130502 47 166 3.0 6.0 0.00 0.00 0.00 54 1017.0
20260502123503 47 355 1.0 6.0 0.00 0.00 0.00 53 1016.8
20260502123003 47 326 5.0 9.0 0.00 0.00 0.00 54 1016.8
20260502122503 47 170 3.0 6.0 0.00 0.00 0.00 54 1016.9
20260502122003 47 160 4.0 8.0 0.00 0.00 0.00 54 1016.9
20260502121502 47 208 1.0 7.0 0.00 0.00 0.00 54 1016.9
20260502120503 46 224 3.0 7.0 0.00 0.00 0.00 53 1016.8
20260502115503 47 169 2.0 6.0 0.00 0.00 0.00 53 1016.7
20260502115003 47 189 1.0 7.0 0.00 0.00 0.00 53 1016.7
20260502114503 47 215 1.0 3.0 0.00 0.00 0.00 52 1016.7
20260502113503 47 85 2.0 6.0 0.00 0.00 0.00 52 1016.3
20260502113003 47 35 0.0 1.0 0.00 0.00 0.00 54 1016.3
20260502112503 47 64 1.0 5.0 0.00 0.00 0.00 52 1016.2
20260502112003 47 211 1.0 5.0 0.00 0.00 0.00 54 1016.4
20260502111503 47 236 0.0 3.0 0.00 0.00 0.00 52 1016.3
20260502111002 47 68 0.0 0.0 0.00 0.00 0.00 53 1016.3
20260502110503 47 68 0.0 2.0 0.00 0.00 0.00 53 1016.4
20260502110003 47 233 3.0 8.0 0.00 0.00 0.00 52 1016.3
20260502105502 47 265 0.0 0.0 0.00 0.00 0.00 53 1016.1
20260502104502 47 298 1.0 1.0 0.00 0.00 0.00 53 1016.2
20260502104003 47 318 0.0 0.0 0.00 0.00 0.00 53 1016.4
20260502103503 47 318 0.0 0.0 0.00 0.00 0.00 52 1016.4
20260502102503 47 208 0.0 1.0 0.00 0.00 0.00 50 1016.4
20260502102002 47 202 0.0 2.0 0.00 0.00 0.00 51 1016.4
20260502100502 47 270 1.0 5.0 0.00 0.00 0.00 51 1016.5
20260502091503 48 205 3.0 8.0 0.00 0.00 0.00 54 1016.2
20260502091003 48 328 7.0 13.0 0.00 0.00 0.00 54 1016.0
20260502090503 48 222 11.0 14.0 0.00 0.00 0.00 54 1016.0
20260502071503 50 195 0.0 3.0 0.00 0.00 0.00 64 1015.8
20260502071002 50 165 1.0 2.0 0.00 0.00 0.00 64 1015.8
20260502070503 50 353 0.0 6.0 0.00 0.00 0.00 64 1015.9
20260502070003 50 209 1.0 5.0 0.00 0.00 0.00 64 1015.8
20260502065503 50 213 0.0 7.0 0.00 0.00 0.00 63 1015.9
20260502065003 50 203 2.0 8.0 0.00 0.00 0.00 62 1015.8
20260502064503 50 117 1.0 8.0 0.00 0.00 0.00 63 1015.8
20260502064003 50 141 0.0 0.0 0.00 0.00 0.00 62 1015.8
20260502063503 50 141 0.0 3.0 0.00 0.00 0.00 63 1015.9
20260502063003 51 63 3.0 5.0 0.00 0.00 0.00 62 1016.0
20260502062503 51 195 0.0 0.0 0.00 0.00 0.00 62 1016.1
20260502061003 51 295 1.0 5.0 0.00 0.00 0.00 60 1016.0
20260502060503 51 110 0.0 2.0 0.00 0.00 0.00 60 1016.1
20260502055503 52 346 0.0 0.0 0.00 0.00 0.00 62 1016.2
20260502055003 52 346 0.0 0.0 0.00 0.00 0.00 62 1016.1
20260502053503 52 346 0.0 1.0 0.00 0.00 0.00 61 1016.0
20260502053003 52 256 0.0 6.0 0.00 0.00 0.00 62 1015.9
20260502052503 53 199 2.0 5.0 0.00 0.00 0.00 62 1016.0
20260502051503 53 240 0.0 0.0 0.00 0.00 0.00 62 1015.9
20260502051003 53 240 0.0 0.0 0.00 0.00 0.00 62 1015.9
20260502050503 53 240 0.0 0.0 0.00 0.00 0.00 61 1016.0
20260502050003 53 240 0.0 0.0 0.00 0.00 0.00 61 1016.0
20260502045503 53 240 1.0 2.0 0.00 0.00 0.00 61 1016.0
20260502045003 53 210 2.0 5.0 0.00 0.00 0.00 60 1016.1
20260502044503 53 165 2.0 5.0 0.00 0.00 0.00 60 1016.1
20260502044003 53 78 0.0 3.0 0.00 0.00 0.00 61 1016.0
20260502043503 54 205 2.0 2.0 0.00 0.00 0.00 61 1015.9
20260502043004 54 65 0.0 0.0 0.00 0.00 0.00 60 1015.7
20260502042504 54 65 0.0 0.0 0.00 0.00 0.00 60 1015.8
20260502042003 54 65 0.0 0.0 0.00 0.00 0.00 60 1015.8
20260502041503 54 65 1.0 2.0 0.00 0.00 0.00 60 1015.8
20260502041003 54 175 0.0 7.0 0.00 0.00 0.00 60 1015.7
20260502040503 54 128 2.0 6.0 0.00 0.00 0.00 59 1015.7
20260502040004 54 71 1.0 5.0 0.00 0.00 0.00 59 1015.7
20260502035503 54 125 2.0 7.0 0.00 0.00 0.00 59 1015.7
20260502035004 55 209 3.0 5.0 0.00 0.00 0.00 60 1015.7
20260502034504 55 230 1.0 6.0 0.00 0.00 0.00 58 1015.7
20260502033503 55 162 5.0 7.0 0.00 0.00 0.00 58 1015.6
20260502033003 55 210 3.0 12.0 0.00 0.00 0.00 57 1015.5
20260502032503 55 199 8.0 13.0 0.00 0.00 0.00 57 1015.4
20260502032003 55 231 5.0 8.0 0.00 0.00 0.00 56 1015.4
20260502031503 56 228 6.0 8.0 0.00 0.00 0.00 56 1015.3
20260502031004 56 282 6.0 8.0 0.00 0.00 0.00 55 1015.3
20260502030503 56 253 6.0 10.0 0.00 0.00 0.00 54 1015.2
20260502030003 56 286 9.0 15.0 0.00 0.00 0.00 53 1015.1
20260502025003 57 327 5.0 13.0 0.00 0.00 0.00 52 1015.3
20260502024503 57 273 3.0 5.0 0.00 0.00 0.00 52 1015.3
20260502024003 57 286 3.0 6.0 0.00 0.00 0.00 50 1015.2
20260502023003 57 231 3.0 10.0 0.00 0.00 0.00 50 1014.9
20260502022003 57 206 5.0 9.0 0.00 0.00 0.00 50 1014.6
20260502021003 58 250 1.0 2.0 0.00 0.00 0.00 56 1014.4
20260502020503 58 335 0.0 2.0 0.00 0.00 0.00 57 1014.1
20260502020003 58 339 0.0 2.0 0.00 0.00 0.00 56 1014.0
20260502015004 58 44 1.0 7.0 0.00 0.00 0.00 55 1014.1
20260502014504 57 349 1.0 6.0 0.00 0.00 0.00 56 1013.9
20260502014004 57 297 1.0 5.0 0.00 0.00 0.00 56 1013.9
20260502013503 57 232 3.0 6.0 0.00 0.00 0.00 56 1013.9
20260502012503 57 322 3.0 6.0 0.00 0.00 0.00 56 1013.7
20260502012003 57 220 3.0 5.0 0.00 0.00 0.00 56 1013.5
20260502011503 57 220 5.0 9.0 0.00 0.00 0.00 55 1013.5
20260502011003 57 226 5.0 6.0 0.00 0.00 0.00 56 1013.5
20260502010503 57 230 3.0 5.0 0.00 0.00 0.00 57 1013.4
20260502010003 58 220 3.0 3.0 0.00 0.00 0.00 57 1013.4
20260502005503 58 255 3.0 3.0 0.00 0.00 0.00 56 1013.3
20260502004003 58 212 3.0 6.0 0.00 0.00 0.00 53 1013.0
20260502003504 59 240 3.0 5.0 0.00 0.00 0.00 53 1012.9
20260502003003 59 241 3.0 6.0 0.00 0.00 0.00 54 1012.8
20260502002503 59 221 6.0 8.0 0.00 0.00 0.00 54 1012.8
20260502002004 59 267 3.0 5.0 0.00 0.00 0.00 55 1012.7
20260502000503 60 252 7.0 9.0 0.00 0.00 0.00 51 1012.4
20260502000003 60 274 7.0 13.0 0.00 0.00 0.00 50 1012.2
20260501235003 60 235 6.0 8.0 0.00 0.00 0.00 50 1011.9
20260501234504 60 213 5.0 6.0 0.00 0.00 0.00 50 1011.8
20260501233503 61 221 6.0 9.0 0.00 0.00 0.00 49 1011.9
20260501233004 61 250 5.0 7.0 0.00 0.00 0.00 49 1011.9
20260501232503 61 250 5.0 9.0 0.00 0.00 0.00 49 1011.8
20260501232003 61 261 6.0 7.0 0.00 0.00 0.00 48 1011.9
20260501231503 61 186 7.0 13.0 0.00 0.00 0.00 48 1011.9
20260501231004 61 252 7.0 12.0 0.00 0.00 0.00 47 1011.9
20260501230504 62 227 6.0 9.0 0.00 0.00 0.00 47 1011.9
20260501230003 62 243 5.0 7.0 0.00 0.00 0.00 46 1011.9
20260501225503 62 256 10.0 13.0 0.00 0.00 0.00 46 1011.9
20260501225004 62 254 2.0 7.0 0.00 0.00 0.00 45 1011.8
20260501224503 63 208 5.0 7.0 0.00 0.00 0.00 46 1011.8
20260501224004 63 241 6.0 10.0 0.00 0.00 0.00 45 1011.8
20260501223004 63 205 10.0 16.0 0.00 0.00 0.00 44 1011.8
20260501222503 63 301 6.0 7.0 0.00 0.00 0.00 44 1011.8
20260501222003 63 132 9.0 13.0 0.00 0.00 0.00 43 1011.9
20260501221503 63 236 6.0 13.0 0.00 0.00 0.00 43 1012.0
20260501221003 63 157 5.0 15.0 0.00 0.00 0.00 44 1012.0
20260501220503 63 338 6.0 9.0 0.00 0.00 0.00 44 1012.1
20260501220003 63 264 8.0 13.0 0.00 0.00 0.00 43 1012.1
20260501215504 63 186 4.0 7.0 0.00 0.00 0.00 44 1012.1
20260501215004 63 260 7.0 12.0 0.00 0.00 0.00 43 1012.2
20260501214503 64 202 7.0 15.0 0.00 0.00 0.00 43 1012.2
20260501213503 64 242 12.0 17.0 0.00 0.00 0.00 44 1012.3
20260501213004 64 159 5.0 15.0 0.00 0.00 0.00 44 1012.3
20260501212503 63 266 2.0 10.0 0.00 0.00 0.00 46 1012.4
20260501212004 63 240 10.0 17.0 0.00 0.00 0.00 44 1012.5
20260501211503 63 104 7.0 12.0 0.00 0.00 0.00 45 1012.4
20260501211004 63 269 3.0 13.0 0.00 0.00 0.00 46 1012.5
20260501210504 63 237 3.0 10.0 0.00 0.00 0.00 45 1012.6
20260501210004 63 226 5.0 8.0 0.00 0.00 0.00 44 1012.5
20260501205004 63 194 8.0 12.0 0.00 0.00 0.00 45 1012.6
20260501204003 63 283 7.0 10.0 0.00 0.00 0.00 44 1012.8
20260501203504 63 224 4.0 15.0 0.00 0.00 0.00 44 1012.8
20260501203004 63 234 7.0 10.0 0.00 0.00 0.00 44 1013.0
20260501202003 63 209 3.0 7.0 0.00 0.00 0.00 44 1013.1
20260501201504 63 203 7.0 9.0 0.00 0.00 0.00 42 1013.2
20260501201003 63 228 12.0 14.0 0.00 0.00 0.00 43 1013.2
20260501200503 63 224 9.0 12.0 0.00 0.00 0.00 43 1013.2
20260501200004 63 271 7.0 14.0 0.00 0.00 0.00 42 1013.4
20260501195504 63 288 7.0 10.0 0.00 0.00 0.00 42 1013.4
20260501195004 63 239 7.0 10.0 0.00 0.00 0.00 45 1013.4
20260501194504 63 222 6.0 16.0 0.00 0.00 0.00 43 1013.7
20260501194004 63 200 9.0 18.0 0.00 0.00 0.00 42 1013.8
20260501193503 63 251 9.0 13.0 0.00 0.00 0.00 42 1013.8
20260501193004 63 198 10.0 22.0 0.00 0.00 0.00 40 1014.0
20260501192504 64 198 11.0 22.0 0.00 0.00 0.00 44 1014.0
20260501192003 64 220 7.0 14.0 0.00 0.00 0.00 42 1014.0
20260501191504 64 261 6.0 15.0 0.00 0.00 0.00 43 1014.2
20260501191004 64 251 12.0 18.0 0.00 0.00 0.00 42 1014.3
20260501190004 63 187 6.0 12.0 0.00 0.00 0.00 43 1014.4
20260501185504 63 161 14.0 18.0 0.00 0.00 0.00 42 1014.5
20260501185004 63 236 12.0 15.0 0.00 0.00 0.00 44 1014.5
20260501184504 63 210 9.0 15.0 0.00 0.00 0.00 44 1014.6
20260501184004 63 230 12.0 16.0 0.00 0.00 0.00 44 1014.6
20260501183503 62 230 10.0 13.0 0.00 0.00 0.00 46 1014.6
20260501183004 62 181 5.0 14.0 0.00 0.00 0.00 44 1014.8
20260501182004 62 144 7.0 15.0 0.00 0.00 0.00 46 1015.1
20260501181503 62 57 6.0 10.0 0.00 0.00 0.00 46 1015.2
20260501181004 62 89 7.0 10.0 0.00 0.00 0.00 43 1015.2
20260501180504 62 155 6.0 10.0 0.00 0.00 0.00 44 1015.3
20260501175504 62 74 7.0 12.0 0.00 0.00 0.00 41 1015.6
20260501175004 62 142 9.0 12.0 0.00 0.00 0.00 47 1015.6
20260501174503 62 139 10.0 14.0 0.00 0.00 0.00 45 1015.6
20260501174003 62 245 7.0 16.0 0.00 0.00 0.00 44 1015.7
20260501173502 62 300 4.0 10.0 0.00 0.00 0.00 46 1015.7
20260501173003 62 128 9.0 16.0 0.00 0.00 0.00 43 1015.9
20260501172503 62 156 8.0 13.0 0.00 0.00 0.00 43 1015.9
20260501172003 62 272 10.0 18.0 0.00 0.00 0.00 46 1016.0
20260501171503 62 254 9.0 15.0 0.00 0.00 0.00 46 1016.0
20260501170503 62 202 6.0 15.0 0.00 0.00 0.00 42 1016.2
20260501170003 62 206 7.0 10.0 0.00 0.00 0.00 46 1016.4
20260501165503 62 43 4.0 8.0 0.00 0.00 0.00 46 1016.4
20260501165003 62 177 8.0 12.0 0.00 0.00 0.00 44 1016.5
20260501163503 62 171 7.0 12.0 0.00 0.00 0.00 45 1016.9
20260501162502 61 231 10.0 15.0 0.00 0.00 0.00 45 1017.0
20260501162003 61 229 8.0 12.0 0.00 0.00 0.00 43 1017.1
20260501161502 60 304 12.0 13.0 0.00 0.00 0.00 47 1017.1
20260501161003 60 217 6.0 13.0 0.00 0.00 0.00 47 1017.1
20260501160503 60 126 5.0 9.0 0.00 0.00 0.00 49 1017.1
20260501160003 60 51 8.0 10.0 0.00 0.00 0.00 48 1017.4
20260501155503 60 184 3.0 7.0 0.00 0.00 0.00 47 1017.3
20260501154502 59 177 7.0 12.0 0.00 0.00 0.00 48 1017.5
20260501154002 59 59 6.0 8.0 0.00 0.00 0.00 46 1017.6
20260501153003 59 49 3.0 10.0 0.00 0.00 0.00 47 1017.7
20260501152502 60 135 5.0 8.0 0.00 0.00 0.00 48 1017.7
20260501152003 60 118 7.0 9.0 0.00 0.00 0.00 50 1017.8
20260501151503 59 10 3.0 9.0 0.00 0.00 0.00 50 1017.8
20260501151003 58 83 7.0 12.0 0.00 0.00 0.00 49 1017.8
20260501150502 58 110 3.0 7.0 0.00 0.00 0.00 51 1017.8
20260501150003 58 69 4.0 8.0 0.00 0.00 0.00 50 1017.8
20260501145503 57 200 5.0 12.0 0.00 0.00 0.00 50 1017.9
20260501145003 57 142 4.0 8.0 0.00 0.00 0.00 51 1018.0
20260501144003 55 73 1.0 8.0 0.00 0.00 0.00 54 1018.1
20260501143503 54 64 1.0 6.0 0.00 0.00 0.00 53 1018.1